Flag for Germany Weather past 2 weeks in Öhringen, Baden-Württemberg, Germany

Now
38 °F

Overcast.


Feels Like: 34 °F
Forecast: 33 / 38 °F
Wind: 6 mph from Southwest

Location: Oehringen

Current Time: Jan 29, 2015 at 11:49:58 AM

Latest Report: Jan 29, 2015 at 11:00 AM


Visibility: 19 mi

Pressure: 29.44 "Hg

Humidity: 67%

Dew point: 28 °F

Location of ÖhringenLocation

Historic Weather in Öhringen — Graph

°F

Öhringen temperature yesterday

Maximum temperature yesterday: 40 °F (at 5:00 PM)
Minimum temperature yesterday: 35 °F (at 12:00 AM)
Average temperature yesterday: 37 °F

Past Weeks' High & Low Weather Summary

 TemperatureHumidityPressure
High53 °F (Jan 15, 10:00 PM)100% (Jan 16, 6:00 PM)30.45 "Hg (Jan 16, 6:00 PM)
Low27 °F (Jan 21, 4:00 AM)45% (Jan 15, 10:00 PM)29.44 "Hg (Jan 29, 11:00 AM)
Average36 °F88%30.03 "Hg
* Reported Jan 14 11:00 AM — Jan 29 11:00 AM, Öhringen, Weather by CustomWeather, © 2014

Note: Actual official high and low records may vary slightly from our data, if they occured in-between our weather recording intervals... More about our weather records

Advertising

Öhringen weather history for previous 24 hours

 ConditionsComfort  
Time TempWeatherWind HumidityBarometerVisibility
11:00 AM
Jan 29
38 °FOvercast.6 mph67%29.44 "Hg19 mi
10:00 AM36 °FOvercast.6 mph73%29.47 "Hg25 mi
9:00 AM35 °FScattered clouds.5 mph73%29.50 "Hg25 mi
8:00 AM33 °FOvercast.3 mph83%29.54 "Hg19 mi
7:00 AM33 °FPassing clouds.5 mph85%29.55 "Hg19 mi
6:00 AM33 °FPassing clouds.5 mph93%29.57 "Hg16 mi
5:00 AM33 °FPassing clouds.3 mph95%29.57 "Hg14 mi
4:00 AM34 °FOvercast.5 mph94%29.59 "Hg22 mi
3:00 AM34 °FOvercast.3 mph95%29.59 "Hg13 mi
2:00 AM33 °FSnow. Low clouds.3 mph97%29.60 "Hg2 mi
1:00 AM35 °FLight rain. Low clouds.7 mph96%29.59 "Hg11 mi
12:00 AM39 °FLight rain. Overcast.9 mph91%29.55 "Hg19 mi
11:00 PM
Jan 28
39 °FLight rain. Overcast.8 mph89%29.54 "Hg4 mi
10:00 PM38 °FDrizzle. Overcast.6 mph88%29.57 "HgN/A
9:00 PM38 °FLight freezing rain. Overcast.8 mph83%29.61 "Hg2 mi
8:00 PM40 °FOvercast.7 mph71%29.63 "Hg22 mi
6:00 PM40 °FOvercast.7 mph72%29.75 "Hg25 mi
5:00 PM40 °FOvercast.8 mph71%29.80 "Hg25 mi
4:00 PM40 °FOvercast.6 mph73%29.85 "Hg14 mi
3:00 PM39 °FOvercast.5 mph73%29.88 "Hg16 mi
2:00 PM39 °FOvercast.6 mph74%29.93 "Hg13 mi
1:00 PM39 °FOvercast.5 mph75%30.00 "Hg17 mi
12:00 PM38 °FOvercast.5 mph79%30.04 "Hg12 mi
11:00 AM37 °FOvercast.5 mph80%30.08 "Hg10 mi
Weather by CustomWeather, © 2014

See weather overviewHow to use our weather pages